Location: Gipe Farm
(40.9466°N, 95.5370°W)
Time: 10:16:15
(UTC-05:00)

Daily predictions for brighter satellites

Satellite Brightness Start Highest point End
(mag) Time Altitude Azimuth Time Altitude Azimuth Time Altitude Azimuth
Meteor 1-24 Rocket 4.0 20:02:16 10° NNW 20:07:50 76° W 20:13:35 10° S
ALOS 2.3 20:03:59 10° SSE 20:08:34 60° ENE 20:13:11 10° N
Timation 1 Rocket 4.4 20:04:23 10° SSW 20:10:22 72° ESE 20:16:21 10° NNE
Cosmos 1271 Rocket 4.0 20:09:21 10° SE 20:12:26 22° E 20:15:32 10° NE
GP-B 4.2 20:10:24 10° SE 20:13:57 24° ENE 20:17:31 10° NNE
Cosmos 1674 3.7 20:12:26 10° NNE 20:15:44 27° ENE 20:19:01 10° SE
Spot 2 Rocket 3.8 20:12:14 10° SE 20:17:05 46° ENE 20:21:58 10° N
Meteor 1-4 Rocket 2.5 20:14:01 10° S 20:17:23 52° E 20:20:48 10° NNE
Cosmos 1758 3.3 20:18:43 10° S 20:22:38 64° E 20:26:36 10° NNE
USA 186 2.9 20:22:51 12° E 20:23:35 14° ENE 20:24:49 10° NE
Resurs 01 Rocket 1.7 20:20:59 10° SSE 20:25:17 55° ENE 20:29:38 10° N
Cosmos 2098 Rocket 4.5 20:18:06 10° S 20:25:22 64° E 20:32:48 10° NNE
CZ-4C R/B4.020:33:11ENE20:33:11ENE20:26:26ESE
Cosmos 1953 2.3 20:24:09 10° S 20:28:11 68° E 20:32:13 10° NNE
GPS 2-05 Rocket1 3.9 20:27:04 10° WSW 20:30:18 34° S 20:32:57 14° ESE
Cosmos 1544 3.3 20:28:50 10° SSW 20:32:28 76° W 20:36:10 10° N
Cosmos 1867 3.7 20:27:12 10° SW 20:32:39 83° WNW 20:38:10 10° NNE
Envisat 4.0 20:31:28 11° ESE 20:35:29 27° ENE 20:39:40 10° N
Cosmos 1605 Rocket 4.2 20:29:35 10° S 20:35:52 79° W 20:42:17 10° N
SeaSat 1 2.4 20:34:44 10° SSE 20:39:40 85° ENE 20:44:38 10° NNW
Cosmos 2100 Rocket 4.2 20:34:49 10° SSE 20:40:52 49° E 20:46:58 10° NNE
CZ-4B DEB 4.1 20:41:50 19° E 20:42:43 22° ENE 20:45:10 10° NNE
Cosmos 2369 Rocket 3.6 20:42:49 15° E 20:42:57 15° E 20:46:07 10° ENE
Cosmos 1939 Rocket 4.3 20:41:39 17° ESE 20:43:26 22° ENE 20:46:38 10° NNE
Fregat R/B Cluster 11 4.3 20:37:31 10° SSW 20:44:07 80° ESE 20:47:32 10° NE
FENGYUN 3A 4.2 20:41:05 10° S 20:46:25 63° WSW 20:51:47 10° NNW
Cosmos 1125 Rocket 3.9 20:41:39 10° SSW 20:46:48 66° WNW 20:52:01 10° NNE
Lacrosse 5 rocket 1.2 20:43:50 10° NW 20:47:46 66° NE 20:50:09 21° ESE
Geosat 4.3 20:43:15 10° NE 20:48:03 43° ESE 20:52:47 10° S
Cosmos 1048 Rocket 4.1 20:44:17 10° NNW 20:49:24 77° WSW 20:54:31 10° SSE
CZ-2D R/B 3.2 20:45:52 10° SSE 20:49:44 77° ENE 20:53:38 10° N
Helios 1B rocket 2.8 20:46:13 10° NNE 20:50:09 41° E 20:54:02 10° S
Cosmos 2151 4.4 20:47:51 10° NNE 20:50:54 19° ENE 20:51:27 18° E
ISS -3.4 20:49:31 10° WSW 20:52:44 61° NNW 20:55:50 11° NE
Cosmos 1408 Rocket 3.5 20:49:13 10° N 20:53:43 84° E 20:58:11 10° S
Cosmos 1833 Rocket 2.8 20:49:02 10° NNW 20:54:41 81° WSW 21:00:18 10° SSE
Resurs 1-3 3.8 20:53:49 10° S 20:58:12 75° WSW 21:02:36 10° NNW
MINOTAUR R/B 4.2 21:00:36 10° SSW 21:03:27 68° ESE 21:06:20 10° NNE
ATLAS 5 CENTAUR R/B 2.2 21:00:03 10° SW 21:04:41 65° NW 21:09:48 10° NNE
Cosmos 1733 3.1 21:00:52 10° S 21:04:44 87° E 21:08:38 10° N
Cosmos 1802 Rocket 3.9 20:59:55 10° S 21:05:55 61° E 21:12:00 10° NNE
Cosmos 1842 Rocket 3.8 21:05:33 12° SSE 21:09:27 45° E 21:13:38 10° NNE
Cosmos 1470 3.0 21:08:04 10° SSW 21:12:02 72° W 21:16:00 10° N
Meteor 1-29 2.8 21:11:22 10° NNE 21:14:50 66° ESE 21:17:45 14° S
Helios 1A 2.9 21:12:42 15° SSE 21:16:06 85° W 21:20:19 10° NNW
Cosmos 1459 Rocket 4.0 21:17:22 10° S 21:23:38 83° W 21:29:49 10° N
Lacrosse 5 4.3 21:20:53 10° WNW 21:24:24 18° NNW 21:27:54 10° NNE
Cosmos 2061 Rocket 4.0 21:18:42 10° S 21:25:06 88° W 21:31:35 10° N
SAR-Lupe-4 4.4 21:26:08 18° S 21:28:33 49° W 21:32:03 10° NNW
Cosmos 1340 Rocket 3.5 21:26:37 10° NNW 21:30:31 52° W 21:33:26 16° SSW
SJ-11-01 4.2 21:28:33 32° SSE 21:30:44 80° ENE 21:35:28 10° N
SPOT 5 4.2 21:31:28 27° ENE 21:31:30 27° ENE 21:35:53 10° N
Cosmos 1356 Rocket 3.2 21:28:59 10° N 21:33:05 75° E 21:33:41 61° SE
Meteor 2-17 Rocket 4.3 21:26:59 10° S 21:33:08 83° E 21:39:18 10° N
Cosmos 2173 Rocket 4.2 21:27:03 10° SSW 21:33:13 72° W 21:39:30 10° N
Cosmos 2251 Rocket 3.4 21:29:07 10° NNW 21:34:29 81° ENE 21:36:35 38° SSE
YAOGAN 6 3.6 21:35:31 35° NE 21:35:31 35° NE 21:38:08 10° N
ARGOS 4.2 21:36:23 27° ENE 21:36:23 27° ENE 21:40:37 10° N
Cosmos 2082 Rocket 3.8 21:32:01 10° NW 21:36:59 32° WSW 21:41:55 10° SSW
USA 215 3.4 21:32:01 10° ENE 21:38:19 49° SE 21:44:35 10° SSW
Cosmos 1864 Rocket 4.4 21:34:28 15° S 21:39:40 64° E 21:45:54 10° NNE
CZ-3B DEB 4.2 21:34:48 10° W 21:41:16 24° NNW 21:45:01 10° NNE
SL-14 R/B 3.4 21:46:41 10° NNW 21:50:32 66° W 21:50:45 65° WSW
Meteor 1-16 Rocket 4.4 21:44:51 10° SSW 21:50:42 77° W 21:56:41 10° N
Meteor 1-11 4.1 21:49:23 10° N 21:54:59 85° W 21:56:52 44° S
Cosmos 2221 3.9 21:58:07 28° NNE 21:58:07 28° NNE 22:00:18 10° NNE
Cosmos 389 Rocket 3.8 21:58:09 37° NNW 21:58:09 37° NNW 22:00:34 10° N
Cosmos 494 Rocket 4.3 21:53:28 10° NNW 21:58:30 60° WSW 22:00:01 41° SSW
Gblst 52 Del rocket 4.1 21:58:37 10° WSW 22:04:34 82° NW 22:06:18 46° NE
Cosmos 2058 3.5 22:02:12 10° N 22:05:31 55° NNW 22:05:31 55° NNW
USA 267 4.3 22:08:51 28° ENE 22:10:54 33° NNE 22:16:37 10° NW
Cosmos 1626 4.2 22:08:28 10° N 22:09:54 22° N 22:09:54 22° N
Envisat 4.3 22:11:41 22° SSW 22:14:19 36° W 22:19:01 10° NNW
CZ-4C R/B 3.2 22:10:09 10° SSW 22:17:57 34° NE 22:21:18 10° NE
Cosmos 1725 Rocket 4.2 22:10:52 15° SSW 22:16:06 66° W 22:22:16 10° N
Meteor 2-1 Rocket 4.3 22:17:50 49° SSW 22:19:23 74° W 22:25:04 10° N
MetOp-B 4.2 22:23:04 75° N 22:23:04 75° N 22:27:57 10° NNW
ERS-1 Rocket 3.4 22:23:12 56° WSW 22:23:25 56° W 22:28:24 10° NNW
Cosmos 2369 Rocket 2.3 22:23:53 35° SW 22:26:17 71° WNW 22:31:55 10° NNE
Lacrosse 5 rocket 4.0 22:24:48 10° W 22:25:53 12° WSW 22:25:53 12° WSW
Cosmos 2151 4.5 22:24:28 10° NNW 22:28:05 33° W 22:28:05 33° W
ISS -0.6 22:27:31 10° WNW 22:28:31 14° NW 22:28:31 14° NW
Cosmos 2346 Rocket 4.4 22:26:33 10° N 22:32:42 86° NW 22:32:42 86° NW
H-2A R/B 3.2 22:40:24 36° NNE 22:40:24 36° NNE 22:43:35 10° N
CZ-3 Stage 3 4.0 22:29:39 10° W 22:46:05 33° SW 22:46:33 33° SSW
Cosmos 1943 Rocket 4.1 22:50:29 20° NNE 22:50:29 20° NNE 22:52:04 10° NNE
Lacrosse 5 4.5 23:07:01 10° NNW 23:09:15 13° N 23:10:10 12° NNE
Terra 4.2 23:14:15 19° N 23:14:15 19° N 23:15:34 10° N
USA 215 3.9 23:15:02 10° NE 23:21:20 52° NNW 23:27:36 10° WSW
USA 267 4.4 23:56:11 38° NW 23:56:11 38° NW 23:59:59 10° NW
